Tracking 19293 objects as of 21-Nov-2018
HD Live streaming from Space Station
objects crossing your sky now

INTELSAT 3-F3

Track INTELSAT 3-F3 now!
INTELSAT 3-F3 is classified as:


NORAD ID: 3674
Int'l Code: 1969-011A
Perigee: 39,895.2 km
Apogee: 41,563.5 km
Inclination: 16.3 °
Period: 1,695.5 minutes
Semi major axis: 47100 km
RCS: 0.4044 m2 (medium)
Launch date: February 6, 1969
Source: International Telecommunications Satellite Organization (ITSO)
Launch site: AIR FORCE EASTERN TEST RANGE (AFETR)
aabbcc
Your satellite tracking list
Your tracking list is empty




NASA's NSSDC Master Catalog

Two Line Element Set (TLE):
1  3674U 69011A   18323.48930022 -.00000163 +00000-0 +00000-0 0  9993
2  3674 016.2653 323.0205 0177098 306.1124 061.4423 00.84931015043209
Source of the keplerian elements: AFSPC